TimeEDT,TemperatureF,Dew PointF,Humidity,Sea Level PressureIn,VisibilityMPH,Wind Direction,Wind SpeedMPH,Gust SpeedMPH,PrecipitationIn,Events,Conditions,WindDirDegrees,DateUTC
12:15 AM,41.0,39.2,93,29.33,10.0,West,16.1,26.5,0.01,Rain,Light Rain,260,2012-10-30 04:15:00
12:35 AM,41.0,39.2,93,29.33,10.0,WSW,18.4,27.6,0.02,Rain,Light Rain,250,2012-10-30 04:35:00
1:15 AM,41.0,39.2,93,29.33,10.0,WSW,16.1,23.0,0.01,Rain,Light Rain,240,2012-10-30 05:15:00
1:35 AM,41.0,39.2,93,29.33,10.0,WSW,16.1,25.3,0.01,,Drizzle,240,2012-10-30 05:35:00
1:55 AM,41.0,39.2,93,29.33,10.0,SW,15.0,20.7,0.01,Rain,Light Rain,230,2012-10-30 05:55:00
2:15 AM,41.0,39.2,93,29.33,10.0,WSW,16.1,21.9,0.02,Rain,Light Rain,240,2012-10-30 06:15:00
2:35 AM,41.0,39.2,93,29.33,10.0,WSW,13.8,24.2,0.04,Rain,Light Rain,250,2012-10-30 06:35:00
2:55 AM,41.0,39.2,93,29.34,10.0,WSW,15.0,25.3,0.06,Rain,Light Rain,240,2012-10-30 06:55:00
3:15 AM,41.0,39.2,93,29.34,10.0,WSW,16.1,25.3,0.01,Rain,Light Rain,240,2012-10-30 07:15:00
3:35 AM,41.0,39.2,93,29.34,7.0,WSW,16.1,26.5,0.04,Rain,Light Rain,240,2012-10-30 07:35:00
3:55 AM,41.0,39.2,93,29.34,10.0,WSW,13.8,28.8,0.06,Rain,Light Rain,240,2012-10-30 07:55:00
4:15 AM,41.0,39.2,93,29.35,10.0,SW,15.0,24.2,0.01,Rain,Rain,230,2012-10-30 08:15:00
4:35 AM,41.0,39.2,93,29.35,10.0,SW,17.3,25.3,0.01,Rain,Light Rain,230,2012-10-30 08:35:00
4:55 AM,41.0,39.2,93,29.35,10.0,SW,18.4,23.0,0.02,Rain,Light Rain,230,2012-10-30 08:55:00
5:15 AM,41.0,39.2,93,29.35,10.0,SW,17.3,21.9,N/A,Rain,Rain,230,2012-10-30 09:15:00
5:35 AM,41.0,37.4,87,29.36,10.0,SW,16.1,29.9,0.01,,Drizzle,230,2012-10-30 09:35:00
6:15 AM,41.0,37.4,87,29.37,10.0,SW,18.4,28.8,N/A,,Overcast,230,2012-10-30 10:15:00
6:35 AM,41.0,37.4,87,29.38,10.0,SW,18.4,27.6,N/A,,Overcast,230,2012-10-30 10:35:00
7:15 AM,41.0,37.4,87,29.39,10.0,SW,13.8,23.0,N/A,,Overcast,230,2012-10-30 11:15:00
7:35 AM,41.0,37.4,87,29.40,10.0,SW,15.0,21.9,N/A,,Overcast,230,2012-10-30 11:35:00
7:55 AM,42.8,37.4,81,29.41,10.0,SW,13.8,-,N/A,,Overcast,230,2012-10-30 11:55:00
8:15 AM,42.8,37.4,81,29.42,10.0,SW,10.4,17.3,N/A,,Overcast,230,2012-10-30 12:15:00
8:35 AM,42.8,37.4,81,29.43,10.0,SW,15.0,19.6,N/A,,Overcast,220,2012-10-30 12:35:00
8:55 AM,42.8,35.6,76,29.43,10.0,SSW,12.7,-,N/A,,Overcast,210,2012-10-30 12:55:00
9:35 AM,44.6,35.6,71,29.44,10.0,WSW,13.8,18.4,N/A,,Overcast,240,2012-10-30 13:35:00
9:55 AM,44.6,35.6,71,29.45,10.0,WSW,19.6,26.5,N/A,,Light Drizzle,240,2012-10-30 13:55:00
10:15 AM,46.4,35.6,66,29.46,10.0,SW,15.0,18.4,N/A,,Overcast,230,2012-10-30 14:15:00
10:35 AM,46.4,35.6,66,29.46,10.0,SW,16.1,26.5,N/A,,Overcast,230,2012-10-30 14:35:00
10:55 AM,46.4,35.6,66,29.46,10.0,SW,12.7,25.3,N/A,,Overcast,230,2012-10-30 14:55:00
11:15 AM,44.6,35.6,71,29.47,10.0,SW,12.7,21.9,N/A,,Drizzle,220,2012-10-30 15:15:00
11:35 AM,44.6,35.6,71,29.47,10.0,WSW,11.5,24.2,N/A,,Drizzle,240,2012-10-30 15:35:00
11:55 AM,44.6,37.4,76,29.48,10.0,WSW,11.5,26.5,N/A,Rain,Light Rain,250,2012-10-30 15:55:00
12:15 PM,44.6,39.2,81,29.48,10.0,SW,11.5,19.6,N/A,,Light Drizzle,230,2012-10-30 16:15:00
12:35 PM,44.6,39.2,81,29.48,10.0,SW,16.1,19.6,N/A,,Light Drizzle,220,2012-10-30 16:35:00
12:55 PM,46.4,39.2,76,29.47,10.0,SW,13.8,20.7,N/A,,Mostly Cloudy,220,2012-10-30 16:55:00
1:15 PM,50.0,37.4,62,29.46,10.0,SW,18.4,25.3,N/A,,Mostly Cloudy,220,2012-10-30 17:15:00
1:35 PM,48.2,37.4,66,29.46,10.0,SSW,12.7,18.4,N/A,,Mostly Cloudy,210,2012-10-30 17:35:00
1:55 PM,50.0,37.4,62,29.46,10.0,SSW,10.4,18.4,N/A,,Mostly Cloudy,210,2012-10-30 17:55:00
2:15 PM,50.0,37.4,62,29.46,10.0,SW,12.7,23.0,N/A,,Overcast,220,2012-10-30 18:15:00
2:35 PM,50.0,37.4,62,29.46,10.0,SW,12.7,17.3,N/A,,Overcast,230,2012-10-30 18:35:00
2:55 PM,50.0,35.6,58,29.46,10.0,SW,13.8,18.4,N/A,,Overcast,230,2012-10-30 18:55:00
3:15 PM,50.0,35.6,58,29.47,10.0,SW,12.7,17.3,N/A,,Overcast,220,2012-10-30 19:15:00
3:35 PM,48.2,37.4,66,29.47,10.0,SW,12.7,21.9,N/A,,Light Drizzle,230,2012-10-30 19:35:00
3:55 PM,50.0,35.6,58,29.48,10.0,WSW,17.3,26.5,N/A,,Overcast,240,2012-10-30 19:55:00
4:15 PM,50.0,35.6,58,29.49,10.0,West,12.7,17.3,N/A,,Overcast,260,2012-10-30 20:15:00
4:35 PM,50.0,35.6,58,29.49,10.0,WSW,9.2,-,N/A,,Overcast,240,2012-10-30 20:35:00
4:55 PM,50.0,35.6,58,29.50,10.0,WSW,11.5,19.6,N/A,,Overcast,250,2012-10-30 20:55:00
5:15 PM,46.4,35.6,66,29.51,10.0,West,13.8,21.9,N/A,,Light Drizzle,260,2012-10-30 21:15:00
5:35 PM,44.6,37.4,76,29.53,10.0,West,12.7,20.7,N/A,,Drizzle,260,2012-10-30 21:35:00
5:55 PM,44.6,39.2,81,29.52,10.0,SW,15.0,20.7,N/A,,Drizzle,230,2012-10-30 21:55:00
6:15 PM,44.6,39.2,81,29.53,10.0,SW,11.5,-,N/A,,Drizzle,230,2012-10-30 22:15:00
6:35 PM,44.6,39.2,81,29.54,10.0,SW,9.2,-,N/A,,Overcast,230,2012-10-30 22:35:00
6:55 PM,44.6,39.2,81,29.54,10.0,WSW,9.2,-,N/A,,Overcast,240,2012-10-30 22:55:00
7:15 PM,46.4,39.2,76,29.55,10.0,WSW,8.1,-,N/A,,Overcast,240,2012-10-30 23:15:00
7:35 PM,46.4,39.2,76,29.56,10.0,WSW,9.2,-,N/A,,Overcast,240,2012-10-30 23:35:00
7:55 PM,46.4,37.4,71,29.57,10.0,WSW,10.4,-,N/A,,Overcast,240,2012-10-30 23:55:00
8:15 PM,46.4,37.4,71,29.58,10.0,WSW,9.2,-,N/A,,Overcast,240,2012-10-31 00:15:00
8:35 PM,46.4,37.4,71,29.58,10.0,WSW,8.1,-,N/A,,Overcast,240,2012-10-31 00:35:00
8:55 PM,46.4,37.4,71,29.59,10.0,SW,5.8,-,N/A,,Overcast,230,2012-10-31 00:55:00
9:15 PM,46.4,37.4,71,29.59,10.0,WSW,9.2,-,N/A,,Overcast,240,2012-10-31 01:15:00
9:35 PM,46.4,37.4,71,29.60,10.0,WSW,9.2,-,N/A,,Overcast,240,2012-10-31 01:35:00
9:55 PM,46.4,37.4,71,29.61,10.0,WSW,6.9,-,N/A,,Overcast,240,2012-10-31 01:55:00
10:15 PM,46.4,37.4,71,29.61,10.0,SW,8.1,-,N/A,,Mostly Cloudy,230,2012-10-31 02:15:00
10:35 PM,44.6,37.4,76,29.61,10.0,SW,6.9,-,N/A,,Clear,230,2012-10-31 02:35:00
10:55 PM,44.6,37.4,76,29.61,10.0,SW,5.8,-,N/A,,Mostly Cloudy,220,2012-10-31 02:55:00
11:15 PM,44.6,37.4,76,29.62,10.0,SW,5.8,-,N/A,,Mostly Cloudy,230,2012-10-31 03:15:00
11:35 PM,42.8,35.6,76,29.62,10.0,SSW,5.8,-,N/A,,Scattered Clouds,210,2012-10-31 03:35:00
11:55 PM,42.8,37.4,81,29.62,10.0,SW,8.1,-,N/A,,Clear,220,2012-10-31 03:55:00